#timestamp,LO_Frequency,Hit,StdDev 
1532534415.2,286046998.6,N
1532534435.0,286047001.1,N
1532534435.9,286047001.1,N
1532534455.8,286046996.9,N
1532534475.6,286046996.5,N
1532534495.5,286046996.8,N
1532534515.3,286046997.5,N
1532534535.1,286046995.5,N
1532534555.9,286046996.1,N
1532534575.7,286046994.0,Y
1532534595.6,286046997.2,P
1532534615.4,286046997.1,P
1532534635.2,286046995.2,P
1532534655.1,286046995.0,Y
1532534656.0,286046995.0,P
1532534675.8,286046996.8,P
1532534695.6,286046997.1,P
1532534715.5,286046997.5,N
1532534735.3,286046997.0,Y
1532534755.2,286047002.3,P
1532534775.9,286046999.7,N
1532534795.7,286047000.2,N
1532534815.6,286047000.2,N
1532534835.4,286046999.9,N
1532534855.2,286047001.0,N
1532534875.1,286047002.1,N
1532534876.0,286047002.1,N
1532534895.8,286047001.8,N
1532534915.7,286047003.5,N
1532534935.5,286047007.6,Y
1532534955.3,286047005.0,P
1532534975.2,286047007.6,P
1532534995.0,286047005.0,N
1532534995.9,286047005.0,N
1532535015.8,286047006.2,N
1532535035.6,286047004.8,N
1532535055.4,286047004.6,N
1532535075.3,286047005.8,Y
1532535095.1,286047001.7,P
1532535115.8,286047002.1,N
1532535135.7,286047003.6,N
1532535155.5,286047002.9,N
1532535175.4,286047001.4,N
1532535195.2,286047002.0,N
1532535215.0,286046999.7,N
1532535215.9,286046999.7,N
1532535235.8,286047001.0,N
1532535255.6,286046998.6,N
1532535275.4,286046998.4,N
1532535295.3,286046999.0,N
1532535315.1,286046998.7,N
1532535335.9,286047001.5,N
1532535355.7,286047003.8,N
1532535375.5,286047004.1,N
1532535395.4,286047002.9,N
1532535415.2,286047003.3,N
1532535435.0,286047003.2,N
1532535435.9,286047003.2,N
1532535455.8,286047001.3,N
1532535475.6,286047002.2,N
1532535495.5,286047005.8,Y
1532535515.3,286047001.3,P
1532535535.1,286047003.9,P
1532535555.9,286047004.8,P
1532535575.7,286047003.2,N
1532535595.5,286047001.9,N
1532535615.4,286047004.3,Y
1532535635.2,286047000.2,P
1532535655.1,286046998.6,N
1532535656.0,286046998.6,N
1532535675.8,286047000.9,N
1532535695.6,286047000.8,N
1532535715.5,286046998.3,N
1532535735.3,286047001.2,N
1532535755.2,286046997.0,N
1532535775.9,286046995.3,N
1532535795.7,286046998.0,N
1532535815.6,286046997.4,N
1532535835.4,286046997.5,N
1532535855.2,286046999.6,N
1532535875.1,286046998.3,N
1532535876.0,286046998.3,N
1532535895.8,286047000.8,N
1532535915.6,286047000.0,N
1532535935.5,286046999.8,N
1532535955.3,286047001.0,N
1532535975.2,286046998.6,N
1532535995.9,286046998.4,N
1532536015.7,286046999.5,N
1532536035.6,286047001.2,N
1532536055.4,286047001.4,N
1532536075.2,286047002.5,N
1532536095.1,286047004.2,N
1532536096.0,286047004.2,N
1532536115.8,286047001.5,N
1532536135.7,286047000.2,N
1532536155.5,286047001.3,N
1532536175.3,286047003.3,N
1532536195.2,286047005.5,N
1532536215.0,286047002.9,N
1532536215.9,286047002.9,N
1532536235.8,286047003.7,N
1532536255.6,286047003.5,N
1532536275.4,286047005.7,N
1532536295.3,286047007.3,N
1532536315.1,286047007.5,N
1532536335.8,286047004.6,N
1532536355.7,286047005.6,N
1532536375.5,286047004.7,N
1532536395.4,286047003.1,N
1532536415.2,286047004.2,N
1532536435.0,286047003.7,N
1532536435.9,286047003.7,N
1532536455.8,286047006.0,N
1532536475.6,286047008.5,Y
1532536495.4,286047007.5,P
1532536515.3,286047005.3,N
1532536535.1,286047005.9,P
1532536555.9,286047003.3,N
1532536575.7,286047005.4,Y
1532536595.5,286047000.3,P
1532536615.4,286047000.9,N
1532536635.2,286046998.4,N
1532536655.0,286046998.7,N
1532536656.0,286046998.7,N
1532536675.8,286047000.0,N
1532536695.6,286046996.8,N
1532536715.5,286046999.2,N
1532536735.3,286047000.9,N
1532536755.1,286046999.4,N
1532536775.9,286046999.3,N
1532536795.7,286046998.4,N
1532536815.6,286047000.3,N
1532536835.4,286047000.0,N
1532536855.2,286047002.5,N
1532536875.1,286047002.4,N
1532536876.0,286047002.4,N
1532536895.8,286047000.0,N
1532536915.6,286047001.0,N
1532536935.5,286046999.2,N
1532536955.3,286046999.4,N
1532536975.2,286046997.0,N
1532536995.9,286046999.3,N
1532537015.7,286046998.7,N
1532537035.6,286046996.9,N
1532537055.4,286046999.0,N
1532537075.2,286046998.5,N
1532537095.1,286047002.2,N
1532537096.0,286047002.2,N
1532537115.8,286047004.2,N
1532537135.7,286047003.7,N
1532537155.5,286047004.3,N
1532537175.3,286047001.9,N
1532537195.2,286047002.5,N
1532537215.9,286047002.7,N
1532537235.7,286047002.6,N
1532537255.6,286047002.2,N
1532537275.4,286046999.8,N
1532537295.2,286047002.5,N
1532537315.1,286047000.4,N
1532537316.0,286047000.4,N
1532537335.8,286046998.9,N
1532537355.7,286047000.4,N
1532537375.5,286046998.1,N
1532537395.3,286046998.2,N
1532537415.2,286046997.0,N
1532537435.0,286046997.5,N
1532537435.9,286046997.5,N
1532537455.8,286046997.9,N
1532537475.6,286046997.0,N
1532537495.4,286046996.8,N
1532537515.3,286046999.4,N
1532537535.1,286046998.3,N
1532537555.8,286046999.4,N
1532537575.7,286046996.9,N
1532537595.5,286046999.0,N
1532537615.3,286046996.7,N
1532537635.2,286046997.2,N
1532537655.0,286046999.1,N
1532537655.9,286046999.1,N
1532537675.8,286046998.1,N
1532537695.6,286046999.4,N
1532537715.4,286046996.9,N
1532537735.3,286046997.4,N
1532537755.1,286046996.9,N
1532537775.8,286046999.6,N
1532537795.7,286046998.7,N
1532537815.5,286046999.6,N
1532537835.4,286046998.4,N
1532537855.2,286047001.2,N
1532537875.0,286046998.4,N
1532537875.9,286046998.4,N
1532537895.8,286046999.3,N
1532537915.6,286046998.6,N
1532537935.4,286047000.8,N
1532537955.3,286046998.8,N
1532537975.1,286046997.3,N
1532537995.9,286046999.2,N
